This is the latest recevied weather packets stored in our database for station/object WC4PEM-10. If no packets are shown the sender has not sent any weather packets the latest 10 day(s).
| Time | Temp. | Humidity | Pressure | Rain* | Wind** | Luminosity | Snow |
|---|---|---|---|---|---|---|---|
| 1777759302 | 21.11° C | 96% | 1010.5 hPa | 1.27 mm | - | - | - |
| 1777759296 | 21.11° C | 96% | 1010.4 hPa | 1.02 mm | - | - | - |
| 1777758996 | 21.11° C | 96% | 1010.5 hPa | 1.27 mm | - | - | - |
| 1777758696 | 21.11° C | 96% | 1011 hPa | 1.52 mm | - | - | - |
| 1777758680 | 21.11° C | 96% | 1011 hPa | 1.52 mm | - | - | - |
| 1777758396 | 21.11° C | 96% | 1011 hPa | 1.52 mm | - | - | - |
| 1777758303 | 21.11° C | 95% | 1011 hPa | 1.27 mm | - | - | - |
| 1777758096 | 21.11° C | 95% | 1011 hPa | 1.27 mm | - | - | - |
| 1777758025 | 21.11° C | 95% | 1010.9 hPa | 1.27 mm | - | - | - |
| 1777757973 | 21.11° C | 95% | 1010.9 hPa | 1.27 mm | - | - | - |
| 1777757796 | 21.11° C | 95% | 1010.9 hPa | 1.27 mm | - | - | - |
| 1777757533 | 20.56° C | 95% | 1010.9 hPa | 1.27 mm | - | - | - |
| 1777757496 | 20.56° C | 95% | 1010.9 hPa | 1.27 mm | - | - | - |
| 1777757412 | 21.11° C | 94% | 1010.8 hPa | 1.02 mm | - | - | - |
| 1777757403 | 21.11° C | 94% | 1010.7 hPa | 1.02 mm | - | - | - |
| 1777757196 | 21.11° C | 94% | 1010.8 hPa | 1.02 mm | - | - | - |
| 1777757042 | 21.11° C | 94% | 1010.7 hPa | 1.02 mm | - | - | - |
| 1777756896 | 21.11° C | 94% | 1010.7 hPa | 1.02 mm | - | - | - |
| 1777756690 | 21.11° C | 93% | 1010.6 hPa | 1.02 mm | - | - | - |
| 1777756610 | 21.67° C | 91% | 1011.1 hPa | 0.76 mm | - | - | - |
| 1777756596 | 21.11° C | 93% | 1010.6 hPa | 1.02 mm | - | - | - |
| 1777756424 | 21.11° C | 92% | 1010.8 hPa | 0.76 mm | - | - | - |
| 1777756296 | 21.11° C | 92% | 1010.8 hPa | 0.76 mm | - | - | - |
| 1777755996 | 21.67° C | 91% | 1011.1 hPa | 0.76 mm | - | - | - |
| 1777755696 | 22.22° C | 88% | 1010.7 hPa | 0.51 mm | - | - | - |
* Rain latest hour (hover to see other rain measurements)
** Current wind speed in m/s (hover to see current wind gust speed)